Regional Weather Roundup
Issued by NWS San Diego, CA

Home | Current Version | Previous Version | Text Only | Print | Product List | Glossary On
Versions: 1 2 3 4 5 6 7 8 9 10 11 12 13 14 15 16 17 18 19 20 21 22 23 24 25 26 27 28 29 30 31 32 33 34 35 36 37 38 39 40 41 42 43 44 45 46 47 48 49 50
695
ASUS46 KSGX 282311
RWRSGX

SAN DIEGO HOURLY WEATHER ROUNDUP
NATIONAL WEATHER SERVICE SAN DIEGO CA
400 PM PDT FRI APR 28 2017

NOTE: "FAIR" INDICATES FEW OR NO CLOUDS BELOW 12,000 FEET WITH NO
SIGNIFICANT WEATHER AND/OR OBSTRUCTIONS TO VISIBILITY.

CAZ042-043-060-061-PZZ750-775-290000-

GREATER SAN DIEGO AREA

CITY           SKY/WX    TMP DP  RH WIND       PRES   REMARKS
SAN DIEGO AP   PTSUNNY   72  57  59 W13       29.77F
NATIONAL CITY    N/A     73  55  52 W5        29.76F
CHULA VISTA      N/A     73  58  59 W8        29.68F
IMPERIAL BEACH MOSUNNY   69  57  65 W13       29.77F
BROWN FIELD    SUNNY     72  46  39 W12G20    29.75F
MIRAMAR MCAS   MOSUNNY   77  46  33 NW16G24   29.75F
MONTGOMERY FLD SUNNY     73  43  33 NW16      29.75F

$$

NORTH SAN DIEGO COUNTY

CITY           SKY/WX    TMP DP  RH WIND       PRES   REMARKS
CAMP PENDLETON PTSUNNY   75  49  39 W9        29.72F
OCEANSIDE AP   SUNNY     73  50  44 NW17G26   29.73F
OCEANSIDE HBR    N/A     68  56  66 W12       29.77F
VISTA            N/A     73  48  42 W3        29.72F
CARLSBAD       SUNNY     70  50  49 W12G20    29.74F
DEL MAR          N/A     72  58  61 W1        29.78F
LA JOLLA SCRIP   N/A     66  60  80 W8        29.75F
FALLBROOK        N/A     78  52  39 SW7       29.70F
ESCONDIDO        N/A     74  50  43 W9        29.75F
SAN MARCOS       N/A     74  49  40 NW12      29.75F
POWAY            N/A     78  49  36 NW3       29.76F

$$

EAST SAN DIEGO COUNTY

CITY           SKY/WX    TMP DP  RH WIND       PRES   REMARKS
RAMONA         SUNNY     74  48  39 W16G22    29.75F
SANTEE LAKES     N/A     74  49  40 W6        29.73F
LA MESA          N/A     74  47  37 NW9       29.68F
JAMUL            N/A     75  51  42 CALM      29.75F
DESCANSO N       N/A     67  49  53 W7        29.69F
MT. LAGUNA OBS   N/A     57  43  57 W9        29.48F
CAMPO            N/A     72  50  45 W12G23    29.73F

$$

ORANGE COUNTY AND THE LOS ANGELES BASIN

CITY           SKY/WX    TMP DP  RH WIND       PRES   REMARKS
JOHN WAYNE AP  CLOUDY    76  46  34 SW8       29.72F
LAGUNA BEACH     N/A     73  54  52 NW5       29.70F
LAKE FOREST FR   N/A     78  40  25 W5        29.63F
HUNTINGTON BCH   N/A     71  57  60 W10       29.74F
LOS ALAMITOS   PTSUNNY   79  40  24 W15G26    29.71F
FULLERTON      PTSUNNY   82  35  18 W14G26    29.69F
LONG BEACH     MOSUNNY   77  39  25 W26G33    29.71F
L.A. AP        MOSUNNY   68  50  52 W25       29.75F
L.A. DOWNTOWN  MOSUNNY   84  21  10 NW12G23   29.71F

$$

THE INLAND EMPIRE

CITY           SKY/WX    TMP DP  RH WIND       PRES   REMARKS
CORONA         SUNNY     82  38  20 W13       29.72F
CHINO          PTSUNNY   84  38  19 SW13      29.72F
ONTARIO        PTSUNNY   80  37  21 SW9       29.71F
SAN BERNARDINO SUNNY    N/A N/A N/A N28       29.76R
RIVERSIDE AP   SUNNY     81  35  19 CALM      29.71F
MORENO VALLEY    N/A     80  33  18 NW6       27.87F
MARCH ARB      SUNNY     79  30  16 NW12G17   29.73F
HORSETHIEF CYN   N/A     80  30  16 E7        29.72F
PERRIS           N/A     78  35  21 W3        29.72F
HEMET EAST       N/A     78  19  11 W5        29.78F
FRENCH VALLEY  FAIR      81  28  15 S7        29.73F
TEMECULA         N/A     77  54  45 S12       29.75F

$$

SAN BERNARDINO AND RIVERSIDE COUNTY MOUNTAINS

CITY           SKY/WX    TMP DP  RH WIND       PRES   REMARKS
BIG BEAR AP    SUNNY     52  12  20 NW3       29.93F
ANGELUS OAKS     N/A     61  25  25 CALM      29.64F
PINE COVE        N/A     60  24  25 SW3       29.74S

$$

SOUTHERN DESERT INCLUDING THE COACHELLA VALLEY

CITY           SKY/WX    TMP DP  RH WIND       PRES   REMARKS
PALM SPRINGS   SUNNY     90  20   7 N8        29.67F
PALM DESERT      N/A     89  28  11 N12       29.02F
THERMAL        SUNNY     90  19   7 N16       29.61F
BLYTHE         MOSUNNY   86  15   7 NW22G30   29.65F
IMPERIAL AP    SUNNY     87  28  12 N7        29.63F
EL CENTRO NAS  MOSUNNY   88  17   7 NE12      29.65F
YUMA AZ        MOSUNNY   86  18   8 N10G17    29.63
MEXICALI       MOSUNNY   86  18   8 NW14      29.65F

$$

UPPER DESERT

CITY           SKY/WX    TMP DP  RH WIND       PRES   REMARKS
VICTORVILLE AP MOSUNNY   73  18  12 NE9       29.82F
HESPERIA         N/A     71  24  17 N3        29.88F
PALMDALE       SUNNY     72  24  16 NW16G25   29.84F
LANCASTER      SUNNY     72  20  14 NW24G32   29.84F
EDWARDS AFB    PTSUNNY   75  21  13 NW15G28   29.77S
DAGGETT        SUNNY     76  13   9 E10       29.79F
29 PALMS N     SUNNY     76  13   9 NW16G29   29.84F
NEEDLES        SUNNY     81   6   5 NE22G37   29.72F

$$

REGIONAL REPORTS

CITY           SKY/WX    TMP DP  RH WIND       PRES   REMARKS
SANTA BARBARA  MOSUNNY   83  15   8 NW15G28   29.76F
SANDBERG       SUNNY     60  23  24 N13G41    29.94F
LAS VEGAS NV   MOSUNNY   70   4   7 N25G36    29.82F
PHOENIX AZ     MOSUNNY   86  18   8 NW28G37   29.55F
TIJUANA        PTSUNNY   73  43  33 W10       29.78F
ENSENADA NW      N/A     67  32  26 W7        29.75F

$$

OFFSHORE ISLANDS

CITY           SKY/WX    TMP DP  RH WIND       PRES   REMARKS
CATALINA ARPT  MOSUNNY   65  47  52 W14       29.81F
SAN CLEMENTE I CLOUDY    65  50  58 W23G29    29.80F
SAN NICOLAS IS PTSUNNY   60  48  64 NW32G49   29.82F

$$

MARINE AND OFFSHORE BUOY REPORTS

STATION/POSITION SKY/WX   TEMP    WIND        PRES    VSBY  SWELL
                          AIR SEA DIR/SP/G                  HT/PER/DIR
                          (F)     (DEG/KT/KT) (MB)    (MI)  (FT/S/D)
TANNER BANKS               58 56  320/ 21/ 27 1009.9F        10/330/10
S CLEMENTE BASIN           61 63  300/ 21/ 25 1007.3F         5/300/11
SAN NICOLAS IS.               55                N/A           5/300/11
SO. S. ROSA ISLA           54 52  310/ 25/ 31 1011.0          7/290/12
W. S. BARBARA CH           53 50  330/ 23/ 25 1011.6F         8/300/10
M. S. BARBARA CH                  280/ 23/ 29 1009.0F
S. MONICA BASIN            62 62  270/ 14/ 17 1008.0F         5/260/ 8
S PEDRO CHANNEL               58                N/A           2/270/11
CMP PENDLETON NS              65                N/A           2/260/11
OCEANSIDE OFFSHR              65                N/A           2/270/11
TORREY PINES OTR              64                N/A           3/280/11
POINT LOMA SOUTH              62                N/A           3/280/11

$$





USA.gov is the U.S. government's official web portal to all federal, state and local government web resources and services.